Find MMS 4

NORAD ID: 40485 Int'l Des: 2015-011 Owner: GSFC Country: US operational
HEOELLIPTICALHEO_ELLIPTICAL

Live Position

Loading 3D Globe...

About MMS 4

Description loading...

Upcoming Passes

Passes for default location (London). Set your location on the main map for personalized predictions.

Altitude History

Loading altitude history...

Two-Line Element Set

1 40485U 15011D 26104.66668981 -.00000687 00000-0 00000-0 0 9994
2 40485 71.4795 349.6021 8385453 166.0968 298.5280 0.28276564 1323
Epoch: Apr 14, 2026 • Age: 6 hours

Current Status

Altitude 86086.4 km
Velocity 2.13 km/s
Sub-Earth Point 20.59°N, 175.53°W
Launch Date Mar 13, 2015
Age 11 years
Type other

Technical Details

Classification Payload
Mass 1360.00 kg
Dry Mass 1000.00 kg
Total Mass 1360.00 kg
Length 1.20 m
Diameter 3.60 m
Span 112.00 m
Shape Cylinder+antennae
Manufacturer GSFC
Bus Type MMS-SMART
Phase Status Deep Space
Owner/State GSFC/US

Most Searched